Location: Czekanka
(50.4925°N, 19.2643°E)
Time: 15:52:18
(UTC+00:00)

SL-16 R/B - Pass Details

Date: 18 September 2024
Orbit: 842 x 846 km, 71.0° (Epoch: 07 October)

Event Time Altitude Azimuth Distance (km) Brightness Sun altitude
Rises 00:52:06 0° 328° (NNW) 3,413 5.6 -30.3°
Reaches altitude 10° 00:56:21 10° 358° (N) 2,475 5.2 -29.9°
Maximum altitude 00:58:34 12° 21° (NNE) 2,318 5.2 -29.7°
Drops below altitude 10° 01:00:46 10° 45° (NE) 2,471 5.6 -29.4°
Sets 01:05:00 0° 75° (ENE) 3,403 6.2 -29.0°
